TimeEDT,TemperatureF,Dew PointF,Humidity,Sea Level PressureIn,VisibilityMPH,Wind Direction,Wind SpeedMPH,Gust SpeedMPH,PrecipitationIn,Events,Conditions,WindDirDegrees,DateUTC
12:53 AM,45.0,30.0,56,30.12,10.0,West,9.2,-,N/A,,Mostly Cloudy,280,2013-04-20 04:53:00
1:53 AM,44.1,30.0,58,30.13,10.0,WNW,6.9,-,N/A,,Partly Cloudy,290,2013-04-20 05:53:00
2:53 AM,41.0,30.0,65,30.13,10.0,West,3.5,-,N/A,,Clear,270,2013-04-20 06:53:00
3:53 AM,41.0,28.9,62,30.14,10.0,WNW,3.5,-,N/A,,Clear,290,2013-04-20 07:53:00
4:53 AM,37.0,30.9,79,30.15,10.0,Calm,Calm,-,N/A,,Clear,0,2013-04-20 08:53:00
5:53 AM,37.9,32.0,79,30.17,10.0,Calm,Calm,-,N/A,,Clear,0,2013-04-20 09:53:00
6:53 AM,36.0,32.0,86,30.18,10.0,Calm,Calm,-,N/A,,Partly Cloudy,0,2013-04-20 10:53:00
7:53 AM,37.9,33.1,83,30.20,10.0,Calm,Calm,-,N/A,,Clear,0,2013-04-20 11:53:00
8:53 AM,42.1,34.0,73,30.22,10.0,Calm,Calm,-,N/A,,Clear,0,2013-04-20 12:53:00
9:53 AM,46.9,32.0,56,30.24,10.0,WSW,3.5,-,N/A,,Clear,240,2013-04-20 13:53:00
10:53 AM,48.9,30.9,50,30.25,10.0,South,4.6,-,N/A,,Clear,190,2013-04-20 14:53:00
11:53 AM,52.0,30.0,43,30.25,10.0,West,8.1,-,N/A,,Partly Cloudy,270,2013-04-20 15:53:00
12:53 PM,54.0,30.0,40,30.24,10.0,Calm,Calm,-,N/A,,Partly Cloudy,0,2013-04-20 16:53:00
1:53 PM,57.0,33.1,40,30.21,10.0,SW,6.9,-,N/A,,Partly Cloudy,220,2013-04-20 17:53:00
2:53 PM,57.0,30.0,36,30.21,10.0,Variable,5.8,-,N/A,,Partly Cloudy,0,2013-04-20 18:53:00
3:53 PM,59.0,32.0,36,30.20,10.0,SE,6.9,-,N/A,,Partly Cloudy,130,2013-04-20 19:53:00
4:53 PM,59.0,30.0,33,30.19,10.0,East,4.6,-,N/A,,Partly Cloudy,80,2013-04-20 20:53:00
5:53 PM,60.1,27.0,28,30.19,10.0,Calm,Calm,-,N/A,,Scattered Clouds,0,2013-04-20 21:53:00
6:53 PM,60.1,30.0,32,30.19,10.0,Calm,Calm,-,N/A,,Scattered Clouds,0,2013-04-20 22:53:00
7:53 PM,55.9,32.0,40,30.20,10.0,East,6.9,-,N/A,,Scattered Clouds,90,2013-04-20 23:53:00
8:53 PM,54.0,33.1,45,30.23,10.0,NE,3.5,-,N/A,,Partly Cloudy,40,2013-04-21 00:53:00
9:53 PM,52.0,30.9,45,30.26,10.0,North,6.9,-,N/A,,Partly Cloudy,10,2013-04-21 01:53:00
10:53 PM,51.1,30.9,46,30.27,10.0,NNE,4.6,-,N/A,,Partly Cloudy,20,2013-04-21 02:53:00
11:53 PM,48.9,30.0,48,30.28,10.0,NNE,4.6,-,N/A,,Scattered Clouds,20,2013-04-21 03:53:00